Regional Weather Roundup
Issued by NWS Newport/Morehead, NC

Current Version | Previous Version | Text Only | Print | Product List | Glossary On
Versions: 1 2 3 4 5 6 7 8 9 10 11 12 13 14 15 16 17 18 19 20 21 22 23 24 25 26 27 28 29 30 31 32 33 34 35 36 37 38 39 40 41 42 43 44 45 46 47 48 49 50
023
ASUS42 KMHX 261213
RWRMHX
WEATHER ROUNDUP FOR EASTERN NORTH CAROLINA
NATIONAL WEATHER SERVICE NEWPORT/MOREHEAD CITY NC
800 AM EDT THU APR 26 2018

NOTE: "FAIR" INDICATES FEW OR NO CLOUDS BELOW 12,000 FEET
WITH NO SIGNIFICANT WEATHER AND/OR OBSTRUCTIONS TO VISIBILITY

NCZ015>017-031-032-045>047-102-103-261300-
NORTH COAST

CITY           SKY/WX    TMP DP  RH WIND       PRES   REMARKS
EDENTON        CLOUDY    62  60  93 CALM      29.88R
ELIZABETH CITY PTSUNNY   61  61 100 CALM      29.87R
KITTY HAWK     CLOUDY    61  61 100 CALM      29.86R
MANTEO         CLOUDY    60  59  97 NW3       29.87R

$$

NCZ045>047-081-094-103-104-261300-
CENTRAL COAST

CITY           SKY/WX    TMP DP  RH WIND       PRES   REMARKS
FRISCO         CLOUDY    65  61  87 W5        29.87R

$$

NCZ095-097-098-100-101-261300-
SOUTHERN COAST

CITY           SKY/WX    TMP DP  RH WIND       PRES   REMARKS
BEAUFORT       CLOUDY    63  59  87 N3        29.87R
CEDAR ISLAND   NOT AVBL
JACKSONVILLE   PTSUNNY   60  58  92 NW3       29.87R
PINEY ISLAND   NOT AVBL
WILMINGTON     PTSUNNY   63  56  78 VRB3      29.88R


$$

NCZ011>013-027>030-043-044-078>080-089-090>093-098-261300-
COASTAL PLAIN

CITY           SKY/WX    TMP DP  RH WIND       PRES   REMARKS
AHOSKIE        CLOUDY    56  56 100 CALM      29.88R
CLINTON        FAIR      59  56  89 CALM      29.89R
ELIZABETHTOWN  CLOUDY    58  54  85 MISG      29.89R
GOLDSBORO      FAIR      61  54  79 NW3       29.86R
GREENVILLE     FAIR      59  55  88 CALM      29.89S
HAVELOCK       NOT AVBL
KENANSVILLE    FAIR      59  55  88 CALM      29.88R
KINSTON        FAIR      59  55  88 NW3       29.89R
NEW BERN       FAIR      60  57  89 CALM      29.88R
RICHLANDS      PTSUNNY   59  56  89 CALM      29.88R
ROCKY MOUNT    CLOUDY    58  53  84 NW8       29.88R
WASHINGTON     FAIR      57  56  97 CALM      29.88R
WHITEVILLE     CLOUDY    60  55  82 CALM      29.88R

$$

AMZ130-135-150-152-154-156-158-170-250-252-270-ANZ085-086-088-633-658-670-261300-
MARINE OBSERVATIONS

STATION/POSITION TIME  TEMP    WIND        PRES    WAVE   SWELL
                       AIR SEA DIR/SP/G            HT/PER HT/PER
                 (UTC) (F)     (DEG/KT/KT) (MB)    (FT/S) (FT/S)
CHESAPEAKE LIGHT NOT AVBL
64 E VA BEACH    1150   53 51  260/  6/  8 1011.2    7/10   7/10
DUCK             1148   60 52  340/  5/  5 1010.7
2 E DUCK         1200      53                N/A     4/10   2/11
OREGON INLET     1142   62 63  290/  4/  5 1011.1
13E OREGON INLT  1148      54                N/A     6/10   5/10
HATTERAS CG      1148   64 67  280/  7/  7 1011.1
DIAMOND BUOY     1150   65 70  300/  8/ 12 1011.7    6/10   5/10
CAPE LOOKOUT     1200          300/  2/  3 1011.9
BEAUFORT LAB     1148   62 64  360/  3/  4 1011.6
30 SE NEW RVR IN 1108   66 66  270/  2/  4 1008.6
30 SE NEW RVR IN 1200      66                N/A     4/ 9   2/11
27 SE WRIGHTSVLE 1108   65 66  220/  2/  6 1010.9
5 SE WRIGHTSVLE  1108   63 63  300/  2/  6 1009.6
225 S CAPE HAT   1200   72 73  220/ 12/ 16 1012.4
41 SE CHARLESTON 1150      69  240/  6/  8 1011.8    4/ 9   3/ 9

$$




USA.gov is the U.S. government's official web portal to all federal, state and local government web resources and services.